This demonstration page uses our WeatherBlox Daily Observations layout. Learn more.

Left ArrowRight Arrow

40.92945, -100.16068

Hourly Observations for April 17, 2016

Temp ( °F °C ) Dew Point ( °F °C ) Humidity (%) Winds ( mph kmh ) Pressure ( in mb ) Visibility ( mi km ) Precip ( " mm )
12:15 am 00:15 Cloudy with Rain 43 6.1 41 5 93 93 NE 20 31 30.06 1018 10 16 0.03 0.76
12:35 am 00:35 Cloudy with Drizzle 43 6.2 41 5 92 92 NE 20 31 30.06 1018 10 16 0.04 1.02
12:55 am 00:55 Cloudy with Drizzle 43 6 40 4.7 91 91 NNE 20 31 30.09 1019 10 16 0.05 1.27
1:15 am 01:15 Cloudy with Light Rain 43 6 41 4.8 92 92 NNE 18 30 30.09 1019 10 16 0.02 0.51
1:35 am 01:35 Cloudy with Rain 43 6.1 41 4.9 92 92 WNW 15 24 30.09 1019 4 6 0.09 2.29
1:55 am 01:55 Cloudy with Light Rain 43 6 40 4.6 91 91 NNW 14 22 30.09 1019 2 3 0.20 5.08
2:15 am 02:15 Cloudy with Heavy Rain 42 5.8 40 4.5 91 91 NW 12 19 30.09 1019 5 8 0.08 2.03
2:35 am 02:35 Cloudy with Rain 42 5.5 40 4.4 93 93 NW 16 26 30.12 1020 4 6 0.16 4.06
2:55 am 02:55 Cloudy with Rain 41 5.2 39 4.1 93 93 WNW 16 26 30.12 1020 5 8 0.22 5.59
3:15 am 03:15 Cloudy with Rain 41 5 39 3.9 93 93 NW 18 30 30.15 1021 5 8 0.05 1.27
3:35 am 03:35 Cloudy with Light Rain 40 4.7 38 3.6 93 93 NW 21 33 30.12 1020 7 11 0.07 1.78
3:55 am 03:55 Cloudy with Light Rain 40 4.7 38 3.5 92 92 NNW 22 35 30.12 1020 7 11 0.09 2.29
4:15 am 04:15 Cloudy with Light Rain 40 4.7 38 3.5 92 92 N 20 31 30.09 1019 10 16 0.01 0.25
4:35 am 04:35 Cloudy with Light Rain 40 4.5 37 3 90 90 NNE 29 46 30.06 1018 10 16 0.01 0.25
4:55 am 04:55 Cloudy 40 4.5 37 2.9 89 89 N 16 26 30.09 1019 10 16 0.01 0.25
5:15 am 05:15 Mostly Cloudy 40 4.5 37 2.9 89 89 N 13 20 30.09 1019 10 16 N/A
5:35 am 05:35 Cloudy 40 4.7 38 3.1 90 90 NNW 8 13 30.09 1019 10 16 N/A
5:55 am 05:55 Cloudy 40 4.7 38 3.2 90 90 N 9 15 30.09 1019 10 16 N/A
6:15 am 06:15 Cloudy 40 4.7 38 3.2 90 90 N 12 19 30.12 1020 10 16 N/A
6:35 am 06:35 Cloudy 40 4.7 38 3.3 91 91 N 9 15 30.12 1020 10 16 N/A
6:55 am 06:55 Cloudy 41 4.8 38 3.5 91 91 N 9 15 30.12 1020 10 16 N/A
7:15 am 07:15 Cloudy 41 5 38 3.5 90 90 NNW 7 11 30.15 1021 10 16 N/A
7:35 am 07:35 Cloudy 41 5 38 3.6 91 91 NNW 9 15 30.15 1021 10 16 N/A
7:55 am 07:55 Cloudy 41 4.9 38 3.5 91 91 NW 9 15 30.15 1021 10 16 N/A
8:15 am 08:15 Cloudy 41 4.8 38 3.5 91 91 NW 12 19 30.15 1021 10 16 N/A
8:35 am 08:35 Cloudy 40 4.7 38 3.5 92 92 NW 10 17 30.21 1023 10 16 N/A
8:55 am 08:55 Cloudy 41 4.8 38 3.6 92 92 NNW 10 17 30.21 1023 10 16 N/A
9:15 am 09:15 Cloudy 41 5 39 3.7 91 91 NNW 10 17 30.18 1022 10 16 N/A
9:35 am 09:35 Cloudy 41 5.2 39 3.9 91 91 NNW 10 17 30.18 1022 10 16 N/A
9:55 am 09:55 Cloudy 41 5.2 39 4 92 92 NNW 15 24 30.21 1023 10 16 N/A
10:15 am 10:15 Cloudy 42 5.4 39 4 91 91 NNW 14 22 30.21 1023 10 16 N/A
10:35 am 10:35 Cloudy with Drizzle 42 5.5 39 4.1 91 91 NNW 13 20 30.21 1023 3 4 N/A
10:55 am 10:55 Cloudy with Mist and Fog 42 5.5 39 4.1 91 91 NNW 15 24 30.21 1023 2 3 0.01 0.25
11:15 am 11:15 Cloudy with Rain 42 5.5 40 4.3 92 92 NNW 13 20 30.21 1023 2 3 N/A
11:35 am 11:35 Cloudy with Drizzle 43 5.9 40 4.7 92 92 NNW 15 24 30.21 1023 3 4 0.01 0.25
11:55 am 11:55 Cloudy with Drizzle 43 6 40 4.6 91 91 NNW 16 26 30.21 1023 3 4 0.01 0.25
12:15 pm 12:15 Cloudy with Drizzle 43 6 40 4.6 91 91 NNW 18 30 30.21 1023 4 6 N/A
12:35 pm 12:35 Cloudy with Light Rain 43 6.2 41 4.9 91 91 NNW 16 26 30.21 1023 10 16 0.01 0.25
12:55 pm 12:55 Cloudy with Light Rain 43 6.3 41 4.9 91 91 NNW 15 24 30.21 1023 7 11 0.01 0.25
1:15 pm 13:15 Cloudy with Rain 43 6.2 40 4.5 89 89 N 14 22 30.21 1023 7 11 0.01 0.25
1:35 pm 13:35 Cloudy with Light Rain 43 6.2 40 4.7 90 90 N 15 24 30.21 1023 5 8 0.04 1.02
1:55 pm 13:55 Cloudy with Light Rain 43 6.3 41 5 91 91 N 15 24 30.21 1023 7 11 0.05 1.27
2:15 pm 14:15 Cloudy with Light Rain 43 6.3 41 4.8 90 90 N 13 20 30.21 1023 10 16 0.01 0.25
2:35 pm 14:35 Cloudy with Light Rain 43 6.2 41 4.8 91 91 N 10 17 30.21 1023 2 2 0.05 1.27
2:55 pm 14:55 Cloudy with Light Rain 43 6.1 41 4.9 92 92 N 13 20 30.24 1024 2 3 0.12 3.05
3:15 pm 15:15 Cloudy with Light Rain 43 6 40 4.6 91 91 N 16 26 30.24 1024 2 2 0.07 1.78
3:35 pm 15:35 Cloudy with Light Rain 42 5.8 40 4.5 91 91 NNW 12 19 30.24 1024 4 6 0.11 2.79
3:55 pm 15:55 Cloudy with Rain 42 5.5 39 4.1 91 91 N 16 26 30.24 1024 3 5 0.18 4.57
4:15 pm 16:15 Cloudy with Light Rain 42 5.5 40 4.2 91 91 N 16 26 30.24 1024 2 3 0.07 1.78
4:35 pm 16:35 Cloudy with Light Rain 42 5.7 40 4.2 90 90 N 13 20 30.24 1024 3 4 0.11 2.79
4:55 pm 16:55 Cloudy with Light Rain 42 5.7 39 4.1 90 90 N 14 22 30.24 1024 10 16 0.13 3.30
5:15 pm 17:15 Cloudy with Light Rain 42 5.5 39 3.8 89 89 N 16 26 30.24 1024 10 16 0.01 0.25
5:35 pm 17:35 Cloudy with Light Rain 42 5.7 39 4.1 90 90 N 17 28 30.24 1024 10 16 0.02 0.51
5:55 pm 17:55 Cloudy with Rain 42 5.6 39 4 90 90 N 16 26 30.24 1024 7 11 0.04 1.02
6:15 pm 18:15 Cloudy with Drizzle 43 6 40 4.4 90 90 N 13 20 30.24 1024 10 16 0.01 0.25
6:35 pm 18:35 Cloudy 43 6 40 4.2 88 88 N 15 24 30.24 1024 10 16 0.01 0.25
6:55 pm 18:55 Cloudy with Rain 42 5.7 39 3.8 88 88 N 14 22 30.24 1024 7 11 0.02 0.51
7:15 pm 19:15 Cloudy with Rain 42 5.7 39 4.1 90 90 N 13 20 30.24 1024 3 5 0.05 1.27
7:35 pm 19:35 Cloudy with Light Rain 42 5.7 40 4.2 90 90 NNW 13 20 30.24 1024 10 16 0.07 1.78
7:55 pm 19:55 Cloudy with Light Rain 42 5.6 40 4.2 91 91 N 10 17 30.30 1026 10 16 0.09 2.29
8:15 pm 20:15 Cloudy with Light Rain 42 5.6 40 4.2 91 91 N 7 11 30.30 1026 7 11 0.01 0.25
8:35 pm 20:35 Cloudy with Rain 42 5.6 40 4.2 91 91 N 9 15 30.30 1026 10 16 0.03 0.76
8:55 pm 20:55 Cloudy with Rain 42 5.6 40 4.2 91 91 N 10 17 30.30 1026 10 16 0.04 1.02
9:15 pm 21:15 Cloudy with Rain 42 5.5 39 4.1 91 91 N 12 19 30.30 1026 7 11 0.04 1.02
9:35 pm 21:35 Cloudy with Light Rain 42 5.5 40 4.2 91 91 N 9 15 30.30 1026 10 16 0.07 1.78
9:55 pm 21:55 Cloudy with Light Rain 42 5.5 39 4.1 91 91 N 9 15 30.33 1027 10 16 0.07 1.78
10:15 pm 22:15 Cloudy with Rain 42 5.5 39 4.1 91 91 N 13 20 30.30 1026 10 16 0.03 0.76
10:35 pm 22:35 Cloudy with Rain 42 5.5 39 4.1 91 91 NNW 13 20 30.33 1027 10 16 0.04 1.02
10:55 pm 22:55 Cloudy with Rain 42 5.3 39 4 91 91 NNW 14 22 30.33 1027 10 16 0.05 1.27
11:15 pm 23:15 Cloudy with Light Rain 41 5.2 39 3.8 91 91 NNW 12 19 30.33 1027 7 11 0.02 0.51
11:35 pm 23:35 Cloudy with Rain 41 5.1 39 3.7 91 91 NNW 13 20 30.33 1027 10 16 0.03 0.76
11:55 pm 23:55 Cloudy with Light Rain 41 5 39 3.7 91 91 NW 9 15 30.33 1027 7 11 0.05 1.27

Powered by AerisWeather